TimeMST,TemperatureF,Dew PointF,Humidity,Sea Level PressureIn,VisibilityMPH,Wind Direction,Wind SpeedMPH,Gust SpeedMPH,PrecipitationIn,Events,Conditions,WindDirDegrees,DateUTC
12:20 AM,23.0,19.4,86,29.58,6.0,North,11.5,18.4,0.00,Snow,Light Snow,360,2013-02-10 07:20:00
12:48 AM,23.0,19.4,86,29.58,6.0,North,13.8,-,0.00,Snow,Light Snow,360,2013-02-10 07:48:00
12:52 AM,23.0,19.0,85,29.68,6.0,North,11.5,-,0.00,Snow,Light Snow,360,2013-02-10 07:52:00
1:52 AM,24.1,19.9,84,29.67,5.0,North,10.4,-,0.00,Snow,Light Snow,350,2013-02-10 08:52:00
2:31 AM,24.8,19.4,80,29.57,4.0,North,17.3,27.6,0.00,Snow,Light Snow,350,2013-02-10 09:31:00
2:52 AM,25.0,19.9,81,29.67,4.0,North,13.8,24.2,0.00,Snow,Light Snow,350,2013-02-10 09:52:00
3:17 AM,24.8,21.2,86,29.55,1.8,NNW,9.2,20.7,0.00,Snow,Light Snow,330,2013-02-10 10:17:00
3:35 AM,24.8,21.2,86,29.55,2.5,NNW,15.0,23.0,0.00,Snow,Light Snow,340,2013-02-10 10:35:00
3:39 AM,24.8,21.2,86,29.55,3.0,NNW,13.8,23.0,0.00,Snow,Light Snow,340,2013-02-10 10:39:00
3:44 AM,24.8,21.2,86,29.56,5.0,NNW,16.1,23.0,0.00,Snow,Light Snow,340,2013-02-10 10:44:00
3:52 AM,25.0,19.9,81,29.66,8.0,NNW,12.7,23.0,0.00,Snow,Light Snow,330,2013-02-10 10:52:00
4:45 AM,26.6,19.4,74,29.56,2.5,NNW,15.0,26.5,0.00,Snow,Light Snow,340,2013-02-10 11:45:00
4:52 AM,26.1,19.9,78,29.66,3.0,NNW,13.8,26.5,0.00,Snow,Light Snow,340,2013-02-10 11:52:00
5:52 AM,27.0,19.0,72,29.68,7.0,NNW,21.9,31.1,0.00,Snow,Light Snow,340,2013-02-10 12:52:00
6:52 AM,28.0,19.9,72,29.69,10.0,NNW,15.0,27.6,0.00,,Overcast,340,2013-02-10 13:52:00
7:08 AM,28.4,21.2,74,29.60,9.0,NNW,23.0,31.1,N/A,,Overcast,330,2013-02-10 14:08:00
7:32 AM,28.4,23.0,80,29.61,10.0,NNW,18.4,27.6,0.00,,Overcast,340,2013-02-10 14:32:00
7:52 AM,28.0,23.0,81,29.72,7.0,NNW,17.3,32.2,0.00,,Overcast,330,2013-02-10 14:52:00
8:52 AM,28.0,23.0,81,29.75,6.0,NNW,23.0,34.5,0.00,,Overcast,340,2013-02-10 15:52:00
9:52 AM,28.9,24.1,82,29.76,2.5,NNW,20.7,33.4,0.00,Snow,Light Snow,340,2013-02-10 16:52:00
10:13 AM,28.4,24.8,86,29.68,1.5,NNW,19.6,31.1,0.00,Snow,Light Snow,340,2013-02-10 17:13:00
10:52 AM,28.9,24.1,82,29.81,2.0,NNW,25.3,38.0,0.00,Snow,Light Snow,340,2013-02-10 17:52:00
11:00 AM,28.4,24.8,86,29.70,2.0,NNW,21.9,35.7,0.00,Snow,Light Snow,340,2013-02-10 18:00:00
11:08 AM,28.4,24.8,86,29.70,1.8,NNW,20.7,38.0,0.00,Snow,Light Snow,330,2013-02-10 18:08:00
11:19 AM,28.4,23.0,80,29.70,2.0,NNW,25.3,36.8,0.00,Snow,Light Snow,330,2013-02-10 18:19:00
11:29 AM,28.4,23.0,80,29.71,4.0,NNW,27.6,41.4,0.00,Snow,Light Snow,340,2013-02-10 18:29:00
11:49 AM,28.4,23.0,80,29.71,2.0,NNW,25.3,33.4,0.00,Snow,Light Snow,340,2013-02-10 18:49:00
11:52 AM,28.9,23.0,78,29.81,2.0,NNW,28.8,39.1,0.00,Snow,Light Snow,340,2013-02-10 18:52:00
11:58 AM,28.4,23.0,80,29.72,1.8,North,24.2,39.1,0.00,Snow,Light Snow,350,2013-02-10 18:58:00
12:07 PM,28.4,23.0,80,29.71,1.8,NNW,23.0,35.7,0.00,Snow,Light Snow,340,2013-02-10 19:07:00
12:15 PM,28.4,24.8,86,29.72,1.5,NNW,18.4,31.1,0.00,Snow,Light Snow,340,2013-02-10 19:15:00
12:27 PM,28.4,23.0,80,29.72,4.0,NNW,24.2,35.7,0.00,Snow,Light Snow,340,2013-02-10 19:27:00
12:39 PM,28.4,21.2,74,29.72,2.5,NNW,24.2,36.8,0.00,Snow,Light Snow,330,2013-02-10 19:39:00
12:47 PM,28.4,21.2,74,29.73,5.0,NNW,20.7,42.6,0.00,,Overcast,330,2013-02-10 19:47:00
12:52 PM,28.9,19.9,69,29.83,7.0,NNW,31.1,44.9,0.00,,Overcast,330,2013-02-10 19:52:00
1:32 PM,28.4,19.4,69,29.75,10.0,NNW,21.9,32.2,0.00,,Overcast,340,2013-02-10 20:32:00
1:52 PM,28.9,19.0,67,29.84,10.0,NNW,20.7,31.1,0.00,,Overcast,340,2013-02-10 20:52:00
2:52 PM,30.0,19.9,66,29.87,10.0,NNW,18.4,31.1,N/A,,Overcast,340,2013-02-10 21:52:00
3:32 PM,30.2,19.4,64,29.80,10.0,NNW,21.9,33.4,N/A,,Overcast,330,2013-02-10 22:32:00
3:40 PM,30.2,19.4,64,29.80,10.0,NNW,18.4,32.2,N/A,,Overcast,330,2013-02-10 22:40:00
3:52 PM,30.0,21.0,69,29.90,9.0,NNW,18.4,29.9,0.00,Snow,Light Snow,330,2013-02-10 22:52:00
4:52 PM,27.0,18.0,69,29.92,10.0,North,23.0,34.5,0.00,,Scattered Clouds,350,2013-02-10 23:52:00
5:52 PM,27.0,16.0,63,29.97,10.0,North,25.3,38.0,N/A,,Overcast,350,2013-02-11 00:52:00
6:52 PM,26.1,15.1,63,30.01,10.0,North,20.7,32.2,N/A,,Mostly Cloudy,350,2013-02-11 01:52:00
7:52 PM,24.1,14.0,65,30.04,10.0,North,18.4,31.1,N/A,,Clear,350,2013-02-11 02:52:00
8:52 PM,23.0,12.9,65,30.08,10.0,NNW,11.5,-,N/A,,Mostly Cloudy,330,2013-02-11 03:52:00
9:52 PM,21.9,14.0,72,30.09,10.0,NNW,9.2,19.6,N/A,,Overcast,330,2013-02-11 04:52:00
10:52 PM,19.9,12.9,74,30.10,10.0,NNW,5.8,-,N/A,,Mostly Cloudy,330,2013-02-11 05:52:00
11:52 PM,15.1,10.9,84,30.14,10.0,Calm,Calm,-,N/A,,Partly Cloudy,0,2013-02-11 06:52:00